Location: Béhencourt
(49.9725°N, 2.4521°E)
Time: 00:18:04
(UTC+00:00)

Daily predictions for brighter satellites

Satellite Brightness Start Highest point End
(mag) Time Altitude Azimuth Time Altitude Azimuth Time Altitude Azimuth
Cosmos 2082 Rocket 4.4 00:50:59 21° NNE 00:50:59 21° NNE 00:52:44 10° NNE
Cosmos 2219 Rocket 4.4 01:07:02 10° NNW 01:09:04 19° N 01:09:04 19° N
ATLAS 3B R/B 4.4 01:09:33 10° NW 01:27:31 - SE 01:12:35 26° NW
USA 215 4.3 01:11:40 10° E 01:16:10 41° NE 01:16:10 41° NE
ATLAS 2AS CENTAUR R/B 3.7 01:22:05 45° ENE 01:22:05 45° ENE 01:26:59 10° NE
Resurs 1-4 Rocket 3.9 01:41:11 10° NNE 01:43:37 28° NNE 01:43:37 28° NNE
NOSS 3-1 (A) 4.1 01:55:41 68° N 01:56:19 71° NE 02:04:57 10° SE
SL-16 R/B 3.6 02:10:00 35° NNW 02:10:00 35° NNW 02:13:22 10° NNW
USA 281 3.6 02:01:08 10° NNE 02:07:16 55° E 02:07:16 55° E
ADEOS II 3.4 02:03:27 10° NNE 02:06:36 37° NNE 02:06:36 37° NNE
Cosmos 2266 Rocket 4.5 02:09:14 57° ENE 02:09:14 57° ENE 02:15:09 10° NNE
CZ-2D R/B 3.5 02:08:30 10° NNE 02:11:32 34° N 02:11:32 34° N
CZ-2C R/B 3.9 02:19:07 33° N 02:19:07 33° N 02:22:05 10° N
IDEFIX/ARIANE 42P 4.0 02:17:01 10° N 02:19:53 32° N 02:19:53 32° N
Cosmos 2237 Rocket 4.2 02:19:43 10° NNW 02:24:25 26° NE 02:29:05 10° E
Lacrosse 5 rocket 3.7 02:31:30 20° ENE 02:31:30 20° ENE 02:32:51 10° ENE
Lacrosse 4 Rocket 4.1 02:33:06 14° N 02:33:06 14° N 02:34:12 10° N
Cosmos 2082 Rocket 4.0 02:32:50 21° NNW 02:32:50 21° NNW 02:36:19 10° NNE
ATLAS CENTAUR R/B 3.4 02:34:10 67° WNW 02:34:58 73° NNW 02:47:14 10° ENE
FENGYUN 3A 3.8 02:40:13 10° NNE 02:44:55 68° NNE 02:44:55 68° NNE
ATLAS 5 CENTAUR R/B 3.9 02:46:58 15° N 02:47:11 15° N 02:49:48 10° NNE
COSMOS 2428 2.9 02:42:11 10° NNW 02:47:53 68° ENE 02:53:34 10° SE
Timation 1 Rocket 4.2 02:49:01 84° NE 02:49:01 84° NE 02:54:51 10° NNE
CZ-2C R/B 3.6 02:51:06 10° NNE 02:55:29 36° E 02:56:50 30° SE
ALOS 2.8 02:52:34 10° NNE 02:56:20 57° NNE 02:56:20 57° NNE
USA 215 3.2 02:54:07 10° ESE 03:00:41 84° NNE 03:03:31 38° NW
Cosmos 1842 Rocket 4.3 03:09:35 48° N 03:09:35 48° N 03:12:51 10° N
ATLAS 2AS CENTAUR R/B 3.3 03:09:31 40° WNW 03:11:08 46° NNW 03:17:59 10° NE
Meteor 1-26 Rocket 4.3 03:11:34 59° WNW 03:11:34 59° WNW 03:16:51 10° N
Cosmos 1655 Rocket 3.9 03:13:15 62° WSW 03:14:01 67° WNW 03:20:25 10° N
Cosmos 1833 4.3 03:14:15 57° NW 03:14:15 57° NW 03:19:47 10° NNE
SL-08 ROCKET BODY 4.3 03:16:47 62° WSW 03:17:33 68° WNW 03:23:37 10° N
CZ-2C R/B 3.1 03:12:55 10° NNE 03:18:42 86° WNW 03:19:54 58° SSW
Thor Agena Rocket 3.5 03:16:00 10° N 03:21:15 66° WNW 03:21:27 66° W
Meteor 2-12 Rocket 4.4 03:20:51 57° WSW 03:21:30 61° WNW 03:27:37 10° N
Resurs 1-4 Rocket 3.7 03:21:53 10° N 03:24:40 20° NW 03:24:40 20° NW
Cosmos 1743 Rocket 3.5 03:22:26 10° N 03:26:49 83° E 03:27:40 57° SSE
Meteor 1-11 Rocket 4.0 03:21:58 10° N 03:27:52 74° ENE 03:33:50 10° SSE
Meteor 1-14 Rocket 4.3 03:22:36 10° NNW 03:28:31 60° W 03:30:00 46° SSW
Cosmos 1805 Rocket 3.5 03:24:50 10° N 03:29:12 83° ENE 03:30:45 40° SSE
Cosmos 1980 4.1 03:25:21 10° NNW 03:30:59 63° ENE 03:36:36 10° SE
USA 229 DEB 3.8 03:23:49 10° NW 03:31:11 77° SW 03:39:10 10° SSE
USA 229 3.8 03:23:55 10° NW 03:31:17 78° SW 03:39:14 10° SSE
Cosmos 1867 4.1 03:33:23 41° SSW 03:33:23 41° SSW 03:37:19 10° SSE
ATLAS CENTAUR R/B 3.5 03:34:46 10° NNW 03:37:27 20° NNE 03:40:13 10° E
Sich 1 2.9 03:33:40 10° N 03:38:02 88° WSW 03:41:11 18° S
Meteor 2-6 Rocket 4.0 03:38:03 49° SW 03:39:23 66° WNW 03:44:47 10° N
Cosmos 1484 Rocket 4.4 03:37:21 10° NNE 03:40:37 30° E 03:43:52 10° SSE
GP-B 3.0 03:38:17 26° S 03:40:45 85° E 03:45:12 10° N
Cosmos 1244 Rocket 4.4 03:39:43 18° S 03:44:34 85° W 03:50:57 10° N
YAOGAN 6 2.4 03:41:59 10° NNE 03:45:24 77° ESE 03:45:35 74° SE
BlueWalker 3 3.7 03:48:24 20° S 03:48:24 20° S 03:49:57 10° SSE
NOSS 3-1 (A) 4.4 03:43:24 25° WNW 03:47:11 39° WSW 03:55:10 10° S
ADEOS II 3.5 03:43:56 10° N 03:47:29 22° NW 03:47:29 22° NW
Meteor 1-10 Rocket 4.1 03:44:45 21° SSW 03:48:30 88° W 03:54:06 10° NNE
SL-16 R/B 4.5 03:55:07 11° NW 03:55:07 11° NW 03:55:33 10° NW
USA 281 3.8 03:45:54 10° NNE 03:51:55 40° NW 03:54:08 31° W
IRS-1D 3.5 03:46:41 10° N 03:51:56 64° WNW 03:54:06 35° SW
CZ-2D R/B 4.0 03:50:04 10° NNW 03:52:50 15° NW 03:52:50 15° NW
Envisat 2.9 03:49:07 10° NNE 03:54:13 84° WNW 03:57:47 20° SSW
TIMED 4.4 03:58:24 33° SSW 04:00:18 87° WNW 04:04:41 10° NNE
Cosmos 2297 Rocket 2.8 03:55:36 10° S 04:01:05 55° ESE 04:06:35 10° NE
Cosmos 1536 2.8 04:02:14 10° NNW 04:06:00 49° W 04:07:16 34° SSW
Lacrosse 5 rocket 1.9 04:06:40 34° WNW 04:07:45 42° NNW 04:11:27 10° NE
Cosmos 1125 Rocket 3.8 04:06:14 33° WSW 04:07:59 45° WNW 04:12:59 10° NNE
Cosmos 2237 Rocket 2.1 04:03:25 10° NNW 04:09:08 78° WSW 04:14:47 10° SSE
METEOR-M 4.3 04:05:39 10° N 04:10:51 51° WNW 04:13:57 23° SW
SL-16 R/B 3.2 04:13:09 10° NNW 04:18:41 49° NE 04:24:11 10° SE
Okean 1 3.1 04:16:06 10° SSW 04:19:56 81° W 04:23:49 10° N
Cosmos 1378 4.4 04:21:28 22° NW 04:21:28 22° NW 04:23:43 10° NNW
Cosmos 1726 2.3 04:18:42 10° N 04:22:07 64° ENE 04:25:32 10° SSE
H-2A R/B 3.2 04:19:28 10° NNE 04:22:54 55° E 04:26:20 10° S
ERS-2 3.9 04:21:32 10° NE 04:24:18 28° E 04:27:04 10° SSE
Cosmos 1975 3.7 04:20:43 10° N 04:24:36 52° ENE 04:28:28 10° SSE
COBE Rocket 3.9 04:21:56 10° N 04:26:40 57° WNW 04:31:30 10° SSW
PAYLOAD A 4.4 04:24:11 10° N 04:28:45 41° WNW 04:32:19 16° SW
IRS-1C 4.5 04:24:57 10° NNE 04:30:17 68° ESE 04:35:36 10° S
Cosmos 2344 4.3 04:23:28 10° SSW 04:30:41 49° ESE 04:37:46 10° NE
Nadezhda 1 Rocket 4.0 04:24:51 10° NNW 04:31:03 60° W 04:37:06 10° S
COSMOS 2428 3.7 04:27:13 10° NW 04:31:38 23° WSW 04:36:02 10° SSW
CBERS-1 4.1 04:27:22 10° N 04:32:24 59° WNW 04:37:24 10° SSW
NOSS 0 Rocket 4.4 04:27:01 10° NW 04:32:41 37° WSW 04:38:19 10° S
ATLAS 5 CENTAUR R/B 4.0 04:29:38 10° NNW 04:33:01 20° NNE 04:36:53 10° ENE
CZ-2C R/B 3.1 04:29:23 10° N 04:33:37 32° WNW 04:36:09 19° WSW
ALOS 3.9 04:31:03 10° NNW 04:33:58 17° WNW 04:34:42 16° WNW
Cosmos 1151 Rocket 3.3 04:31:38 10° SSW 04:35:50 47° WNW 04:40:05 10° N
Cosmos 1733 3.0 04:38:05 10° N 04:41:48 90° NE 04:45:29 10° S
Cosmos 1515 Rocket 4.4 04:39:43 10° S 04:44:00 54° E 04:48:17 10° NNE
USA 215 3.8 04:38:05 10° SSE 04:44:07 38° SW 04:50:10 10° WNW
Cosmos 1666 Rocket 3.8 04:40:16 10° NNW 04:44:27 46° W 04:48:36 10° SSW
Meteor 2-20 Rocket 4.5 04:39:14 10° NNW 04:45:25 61° W 04:51:20 10° S
ARIANE 5 R/B 2.6 04:40:38 10° NNE 04:45:41 83° ESE 04:50:41 10° SSW
BREEZE-M DEB (TANK) 4.0 04:42:21 17° WSW 04:45:44 77° SSE 05:04:21 10° E
Cosmos 1328 Rocket 3.5 04:42:31 10° SSW 04:46:55 72° WNW 04:51:20 10° N
Cosmos 2227 Rocket 2.5 04:42:13 10° SSW 04:47:51 71° ESE 04:53:31 10° NNE
COSMO-SKYMED 1 2.8 04:44:21 10° SSE 04:48:39 74° ENE 04:53:01 10° N
Cosmos 44 Rocket 3.4 04:43:54 11° SW 04:48:52 74° NW 04:54:05 10° NE
Cosmos 1933 Rocket 4.2 04:46:11 10° N 04:50:29 61° ENE 04:54:46 10° SSE
Cosmos 2263 Rocket 4.4 04:46:26 10° SSE 04:51:05 27° ESE 04:55:44 10° NE
Genesis I 3.5 04:47:59 10° NW 04:51:41 62° NE 04:55:20 10° SE
Meteor 1-27 Rocket 4.1 04:49:51 10° SW 04:55:12 44° WNW 05:00:43 10° N
CZ-2D R/B 3.8 04:51:42 10° NNE 04:56:03 77° ESE 05:00:24 10° S
Helios 1A 3.5 04:56:45 10° SSW 05:00:29 33° W 05:04:13 10° NNW
ATLAS 2AS CENTAUR R/B 4.1 04:57:44 10° WNW 05:03:49 27° N 05:09:39 10° NE
IRS-P3 4.1 04:59:06 10° NNE 05:04:28 79° WNW 05:09:47 10° SSW
Meteor 1-19 Rocket 4.5 04:59:25 10° SW 05:04:43 45° WNW 05:09:57 10° N
Cosmos 1238 4.3 05:04:10 10° NNW 05:07:10 50° W 05:10:07 10° S
Cosmos 1709 Rocket 4.1 05:01:34 10° SSW 05:07:53 64° WNW 05:14:13 10° N
Cosmos 1805 3.1 05:04:50 10° NNW 05:08:36 66° W 05:12:20 10° S
Cosmos 1140 Rocket 3.5 05:07:20 10° NNW 05:12:36 87° WSW 05:17:51 10° SSE
Cosmos 1633 Rocket 3.8 05:09:07 10° NNW 05:12:57 30° W 05:16:46 10° SSW
Cosmos 1484 Rocket 3.8 05:11:36 10° NNW 05:14:32 24° WNW 05:17:29 10° WSW
Meteor 2-4 Rocket 3.8 05:08:58 10° SSW 05:14:52 74° WNW 05:20:41 10° N
ATLAS CENTAUR R/B 1.0 05:12:21 10° NW 05:15:55 66° SW 05:19:27 10° SSE
H-2A R/B 2.2 05:16:19 10° N 05:21:46 73° WNW 05:27:08 10° SSW
Meteor 1-18 Rocket 4.3 05:20:18 10° SSW 05:26:07 65° WNW 05:31:52 10° N
